Location: Great Malvern
(52.1167°N, 2.3167°W)
Time: 09:53:43
(UTC+00:00)

Lacrosse 5 rocket - Pass Details

Date: 18 September 2020
Orbit: 460 x 636 km, 57.0° (Epoch: 30 October)

Event Time Altitude Azimuth Distance (km) Brightness Sun altitude
Rises 21:24:31 0° 287° (WNW) 2,817 5.9 -26.9°
Reaches altitude 10° 21:26:49 10° 293° (WNW) 1,942 4.9 -27.2°
Enters shadow 21:30:52 46° 357° (N) 837 2.4 -27.6°
